Find Local Weather

World > North America > United States > North Dakota

Woodbury, North Dakota Regional Weather

Lat: 46.91N, Lon: 98.71W
Wx Zone: NDZ037
Feedback

Woodbury, ND Regional Weather

Expires:201905212200;;241593
ASUS43 KBIS 212110
RWRND 

NORTH DAKOTA REGIONAL WEATHER ROUNDUP
NATIONAL WEATHER SERVICE BISMARCK ND
400 PM CDT TUE MAY 21 2019

NOTE: "FAIR" INDICATES FEW OR NO CLOUDS BELOW 12,000 FEET WITH NO
SIGNIFICANT WEATHER AND/OR OBSTRUCTIONS TO VISIBILITY.



NDZ022-023-025-028>030-036>039-047>053-212200-
SOUTHEAST NORTH DAKOTA
  
CITY           SKY/WX    TMP DP  RH WIND       PRES   REMARKS
FARGO          FAIR      69  30  23 E22G33    29.90F                  
JAMESTOWN      CLOUDY    63  31  30 E17G31    29.89F                  
$$ 

  

SKY/WX - Weather  TMP - Temperature  DP - Dew Point  RH - Relative Humidity
WIND - Wind Direction/Speed PRES - Barometric Pressure VSB - Visibility
WCI - Wind Chill Index E13G22 Wind - East Wind 13 mph/Gusts of 22 mph